GW1572 Weather Reports


time (UTC)temp
F
wind
direction
speed
knots
gust
knots
rain 1hr
in
rain 24hr
in
rain mn
in
humidity
%
barometer
mb
20221203062003 54 78 1.7 2.6 0.00 0.00 0.02 79 1018.9
20221203055601 60 40 3.5 7.8 0.00 0.00 0.00 45 1019.6
20221203035501 50 95 2.6 2.6 0.00 0.00 0.00 70 1021.3
20221203024903 53 87 2.6 2.6 0.00 0.00 0.00 51 1021.6
20221203023104 52 57 0.9 1.7 0.00 0.00 0.00 49 1021.3
20221203015402 52 223 0.0 0.0 0.00 0.00 0.00 57 1022.0
20221203014203 51 106 1.7 1.7 0.00 0.00 0.00 50 1021.3
20221203000902 50 300 1.7 1.7 0.00 0.00 0.00 53 1022.0
20221202231502 46 84 1.7 1.7 0.00 0.00 0.00 63 1022.3
20221202212402 54 106 2.6 2.6 0.00 0.00 0.00 50 1022.6
20221202210903 57 90 0.0 0.0 0.00 0.00 0.00 41 1023.0
20221202204103 56 101 1.7 1.7 0.00 0.00 0.00 40 1023.0
20221202200205 58 71 0.0 0.0 0.00 0.00 0.00 31 1023.3
20221202194104 59 114 1.7 2.6 0.00 0.00 0.00 28 1023.7
20221202190502 59 304 4.3 5.2 0.00 0.00 0.00 29 1024.3
20221202175603 53 277 1.7 2.6 0.00 0.00 0.00 40 1026.0
20221202173403 50 295 1.7 2.6 0.00 0.00 0.00 53 1026.4
20221202170102 48 2 1.7 1.7 0.00 0.00 0.00 52 1027.4
20221202164504 48 298 1.7 2.6 0.00 0.00 0.00 55 1027.7
20221202161709 44 305 0.9 1.7 0.00 0.00 0.00 61 1028.1
20221202145007 34 325 1.7 2.6 0.00 0.00 0.00 75 1029.1
20221202143803 31 338 0.9 1.7 0.00 0.00 0.00 86 1029.4
20221202140209 29 332 0.9 1.7 0.00 0.00 0.00 84 1029.1
20221202133102 28 104 0.0 0.0 0.00 0.00 0.00 89 1029.1
20221202131906 28 104 0.0 0.0 0.00 0.00 0.00 90 1029.4
20221202125403 26 104 0.0 0.0 0.00 0.00 0.00 91 1029.4
20221202123004 26 104 0.0 0.0 0.00 0.00 0.00 91 1029.8
20221202113003 24 105 0.0 0.0 0.00 0.00 0.00 96 1029.8
20221202110604 23 104 1.7 1.7 0.00 0.00 0.00 97 1029.1
20221202105407 23 104 0.9 1.7 0.00 0.00 0.00 97 1029.4
20221202095405 23 104 0.0 0.0 0.00 0.00 0.00 95 1029.4
20221202092603 23 104 1.7 2.6 0.00 0.00 0.00 96 1029.4
20221202090702 23 104 1.7 1.7 0.00 0.00 0.00 95 1029.8
20221202085203 24 104 1.7 2.6 0.00 0.00 0.00 96 1029.4
20221202083704 24 104 1.7 1.7 0.00 0.00 0.00 96 1029.4
20221202065507 24 104 0.9 1.7 0.00 0.00 0.00 95 1029.4